Date,TemperatureHighF,TemperatureAvgF,TemperatureLowF,DewpointHighF,DewpointAvgF,DewpointLowF,HumidityHigh,HumidityAvg,HumidityLow,PressureMaxIn,PressureMinIn,WindSpeedMaxMPH,WindSpeedAvgMPH,GustSpeedMaxMPH,PrecipitationSumIn
2013-1-1,54,41,36,45,41,30,99,99,93,29.91,29.91,13,1,18,0.84
2013-1-2,41,39,36,41,38,36,99,98,93,29.91,29.91,11,2,18,0.07
2013-1-3,47,38,31,36,33,28,99,86,57,29.91,29.91,5,0,8,0.00
2013-1-4,42,32,25,31,28,24,97,85,62,29.91,29.91,6,1,9,0.00
2013-1-5,49,35,22,41,31,21,99,85,59,29.91,29.91,5,0,9,0.04
2013-1-6,48,41,38,43,40,34,99,93,80,29.91,29.91,9,3,20,0.02
2013-1-7,44,34,28,38,31,27,98,90,78,29.91,29.91,7,1,12,0.00
2013-1-8,54,33,25,43,30,24,99,91,66,29.91,29.91,3,0,7,0.00
2013-1-9,48,41,37,48,41,36,99,98,92,29.91,29.91,3,0,6,0.12
2013-1-10,62,51,47,60,50,46,99,98,91,29.91,29.91,5,1,9,0.00
2013-1-11,65,56,53,64,56,53,99,99,99,29.91,29.91,13,2,26,0.03
2013-1-12,72,64,57,70,64,56,99,98,94,29.91,29.91,9,2,18,0.02
2013-1-13,68,61,53,66,61,53,99,98,88,29.91,29.91,10,2,20,0.98
2013-1-14,62,47,40,61,47,40,99,99,99,29.91,29.91,9,3,17,1.34
2013-1-15,43,41,40,42,41,40,99,99,99,29.91,29.91,7,2,13,2.08
2013-1-16,48,43,42,47,43,41,99,99,99,29.91,29.91,9,1,15,0.54
2013-1-17,42,37,32,42,37,31,99,99,95,29.91,29.91,7,3,16,0.85
2013-1-18,45,34,22,41,32,22,99,94,74,29.91,29.91,3,0,7,0.28
2013-1-19,51,36,26,43,34,25,99,92,67,29.91,29.91,8,1,14,0.00
2013-1-20,58,44,34,45,38,33,98,81,58,29.91,29.91,8,2,14,0.00
2013-1-21,48,36,26,34,26,16,99,69,42,29.91,29.91,13,3,20,0.00
2013-1-22,34,26,22,16,10,3,61,50,36,29.91,29.91,8,3,15,0.00
2013-1-23,44,31,23,33,16,9,76,55,44,29.91,29.91,10,2,16,0.00
2013-1-24,42,36,28,36,26,15,85,66,41,29.91,29.91,12,5,20,0.00
2013-1-25,34,30,26,34,27,14,99,88,59,29.91,29.91,6,1,12,0.25
2013-1-26,46,37,30,40,35,30,99,92,74,29.91,29.91,7,1,12,0.02
2013-1-27,48,37,25,43,35,25,99,92,76,29.91,29.91,6,0,8,0.02
2013-1-28,55,44,39,53,43,39,99,95,81,29.91,29.91,8,1,16,0.03
2013-1-29,67,52,44,62,51,44,99,97,85,29.91,29.91,5,0,9,0.00
2013-1-30,68,57,43,66,57,41,99,98,93,29.91,29.91,18,5,35,2.61
2013-1-31,43,37,33,40,31,27,94,80,64,29.91,29.91,14,9,29,0.00
2013-2-1,40,30,21,37,21,12,99,69,49,29.91,29.91,14,4,25,0.01
2013-2-2,35,29,22,34,27,20,99,93,82,29.91,29.91,12,3,21,0.02
2013-2-3,42,36,30,39,33,26,99,89,69,29.91,29.91,12,4,22,0.03
2013-2-4,46,32,24,37,28,23,99,88,60,29.91,29.91,7,1,10,0.00
2013-2-5,43,43,42,40,37,35,89,79,73,29.91,29.91,7,4,13,0.00
2013-2-25,52,52,52,42,40,38,68,63,59,29.84,29.78,9,3,12,0.00
2013-2-26,61,50,43,54,46,39,97,85,68,29.78,29.43,25,8,35,0.43
2013-2-27,46,41,39,40,37,35,93,87,74,29.84,29.68,20,8,24,0.02
2013-2-28,40,38,36,35,32,28,93,79,65,29.98,29.80,12,5,20,0.01
2013-3-1,43,38,35,37,34,32,94,87,71,29.97,29.91,7,1,12,0.01
2013-3-2,39,35,24,35,31,19,97,84,72,30.05,29.91,13,3,21,0.03
2013-3-3,37,30,24,26,22,19,85,71,57,30.77,29.94,8,2,14,0.00
2013-3-4,58,36,18,34,26,15,94,68,34,30.17,29.98,9,1,12,0.00
2013-3-5,47,40,34,47,38,29,100,92,63,30.01,29.62,24,6,33,1.83
2013-3-6,35,33,30,33,31,26,100,92,81,30.24,29.83,13,3,17,0.04
2013-3-7,41,35,30,39,32,16,100,88,78,30.73,30.00,8,1,10,0.03
2013-3-8,61,42,28,41,33,25,93,72,43,30.39,30.27,11,2,15,0.00
2013-3-9,69,49,30,46,37,28,91,68,36,30.30,30.16,11,1,15,0.00
2013-3-10,75,57,42,52,44,39,92,64,36,30.16,29.98,8,0,9,0.00
2013-3-11,66,56,48,58,51,41,100,83,56,29.99,29.75,19,4,28,0.73
2013-3-12,60,47,40,46,39,34,95,74,51,30.09,29.87,10,3,15,0.01
2013-3-13,47,40,34,36,28,20,88,64,46,30.30,30.05,17,4,33,0.00
2013-3-14,52,43,31,33,26,20,70,53,37,30.38,30.22,11,3,15,0.00
2013-3-15,68,50,32,50,40,29,90,71,49,30.24,29.89,16,3,23,0.00
2013-3-16,78,65,54,58,53,48,83,64,49,29.91,29.77,22,8,29,0.00
2013-3-17,74,64,54,60,55,51,89,73,52,29.97,29.83,18,3,25,0.00
2013-3-18,57,54,49,57,52,37,100,95,83,29.90,29.75,15,1,64,0.76
2013-3-19,60,50,38,53,34,19,100,59,26,30.12,29.83,16,4,24,0.01
2013-3-20,58,44,32,38,26,18,85,52,27,30.15,29.86,18,4,29,0.00
2013-3-21,45,34,25,23,17,12,65,51,36,30.01,29.92,17,3,22,0.00
2013-3-22,49,37,23,36,26,18,85,64,38,30.06,29.98,9,1,12,0.00
2013-3-23,57,47,40,49,41,34,93,82,70,30.02,29.77,8,1,12,0.01
2013-3-24,57,50,42,55,48,36,100,95,75,29.79,29.36,22,3,31,1.13
2013-3-25,42,36,32,38,32,30,98,88,69,30.00,29.58,21,9,32,0.03
2013-3-26,41,35,32,35,32,30,98,88,70,30.26,29.99,12,3,20,0.02
2013-3-27,54,41,31,37,31,27,94,71,43,30.32,30.24,10,2,14,0.00
2013-3-28,61,42,25,37,29,23,94,63,27,30.34,30.23,11,2,16,0.00
2013-3-29,49,41,30,44,36,27,99,84,61,30.34,30.23,9,1,13,0.20
2013-3-30,65,51,42,55,48,41,100,88,64,31.50,30.00,8,1,11,0.17
2013-3-31,60,55,51,59,55,51,100,98,89,30.00,29.85,15,3,20,0.63
2013-4-1,66,53,42,54,46,38,100,81,47,30.07,29.89,17,3,22,0.00
2013-4-2,62,49,36,39,30,23,74,49,27,30.22,30.07,10,2,14,0.00
2013-4-3,66,50,33,38,31,25,82,51,29,30.27,30.17,14,2,17,0.00
2013-4-4,51,46,42,44,38,26,98,76,40,30.18,29.97,12,3,15,0.68
2013-4-5,71,53,41,51,45,41,100,76,39,30.08,29.96,10,1,16,0.00
2013-4-6,74,56,37,53,45,35,92,68,38,30.18,30.04,13,1,16,0.00
2013-4-7,75,61,46,55,48,41,89,64,43,30.14,30.02,18,4,25,0.00
2013-4-8,78,64,51,61,55,48,92,74,52,30.09,29.99,20,4,31,0.00
2013-4-9,82,68,53,65,59,51,95,74,52,30.18,30.02,17,3,23,0.00
2013-4-10,88,72,56,68,62,54,96,74,48,30.11,29.88,16,2,22,0.00
2013-4-11,86,73,64,69,63,60,100,73,49,29.90,29.64,22,3,32,0.86
2013-4-12,69,60,54,64,53,43,100,80,44,29.93,29.58,15,4,21,0.21
2013-4-13,76,60,43,53,46,41,95,64,33,30.06,29.93,13,2,18,0.00
2013-4-14,74,60,43,59,50,41,91,72,49,30.04,29.92,17,1,24,0.02
2013-4-15,84,68,56,68,61,54,98,78,54,30.07,29.90,10,1,14,0.00
2013-4-16,87,71,56,72,64,54,97,81,59,30.22,30.07,11,1,15,0.00
2013-4-17,75,67,61,69,65,61,100,94,78,30.25,30.04,15,2,21,0.18
2013-4-18,88,71,57,71,62,57,100,79,45,30.04,29.81,18,3,25,0.00
2013-4-19,73,60,48,67,54,37,100,80,65,30.05,29.66,18,6,30,1.25
2013-4-20,68,51,35,46,38,33,95,65,33,30.25,30.05,10,2,17,0.00
2013-4-21,76,55,38,52,43,36,93,66,35,30.35,30.22,10,1,13,0.00
2013-4-22,81,62,44,57,49,40,88,65,36,30.30,30.11,11,2,17,0.00
2013-4-23,77,61,45,62,51,42,92,71,47,30.19,29.99,10,1,14,0.00
2013-4-24,71,59,48,66,56,43,100,89,71,30.20,29.94,24,5,37,0.24
2013-4-25,73,56,40,60,45,39,100,71,36,30.32,30.20,8,1,12,0.00
2013-4-26,73,56,39,55,46,37,95,72,42,30.55,30.25,12,1,16,0.01
2013-4-27,59,55,53,59,55,52,100,99,90,30.32,30.07,6,0,8,0.54
2013-4-28,60,56,53,60,56,53,100,100,100,30.09,29.90,15,1,26,1.43
2013-4-29,77,63,54,68,60,45,100,90,65,30.01,29.91,9,1,12,0.00
2013-4-30,88,68,51,87,61,50,100,81,43,30.04,29.93,7,0,10,0.00
2013-5-1,84,71,58,69,62,57,99,76,56,30.17,30.04,12,3,18,0.00
2013-5-2,85,70,57,69,61,55,94,74,53,30.16,30.06,11,2,15,0.00
2013-5-3,82,68,58,65,59,54,94,73,49,30.09,29.94,17,5,21,0.00
2013-5-4,63,60,55,59,54,41,100,83,55,29.94,29.85,16,5,24,0.85
2013-5-5,62,56,53,62,56,53,100,99,93,29.87,29.72,14,3,20,0.81
2013-5-6,66,57,50,60,54,50,100,90,71,29.87,29.73,11,2,14,0.29
2013-5-7,72,60,49,62,56,49,100,88,64,29.93,29.83,7,1,9,0.05
2013-5-8,77,65,58,70,62,58,100,92,70,30.02,29.88,11,1,18,0.01
2013-5-9,84,69,56,72,64,56,100,86,61,30.07,29.94,10,1,17,0.02
2013-5-10,74,67,58,69,63,57,100,88,72,30.03,29.88,15,2,25,0.00
2013-5-11,78,68,60,71,63,55,100,85,65,29.96,29.80,12,4,20,0.00
2013-5-12,68,60,52,56,43,35,86,54,33,30.08,29.94,12,3,20,0.00
2013-5-13,70,56,41,49,42,36,92,64,33,30.17,30.07,12,2,20,0.00
2013-5-14,79,62,43,64,52,40,100,72,52,30.17,29.97,15,4,22,0.00
2013-5-15,89,75,63,72,64,59,90,72,50,30.08,29.92,13,4,20,0.00
2013-5-16,87,73,61,72,66,59,96,79,56,30.01,29.91,11,2,15,0.00
2013-5-17,84,73,63,75,69,61,100,88,61,30.05,29.95,6,0,9,0.10
2013-5-18,76,71,67,74,71,67,100,98,89,30.01,29.94,8,0,12,0.17
2013-5-19,80,70,65,78,70,65,100,99,86,30.00,29.93,11,1,16,0.03
2013-5-20,90,75,62,80,71,61,100,88,65,30.06,29.92,7,0,10,0.00
2013-5-21,94,77,66,83,72,66,100,86,62,29.99,29.85,13,1,20,0.00
2013-5-22,87,74,65,81,70,65,100,88,66,29.91,29.76,12,2,20,0.00
2013-5-23,84,73,65,72,67,60,100,84,57,29.94,29.81,15,3,25,0.02
2013-5-24,73,65,58,70,55,48,100,71,45,30.21,29.94,12,4,20,0.00
2013-5-25,80,64,47,62,52,44,100,68,33,30.27,30.09,8,1,12,0.00
2013-5-26,84,69,56,67,60,54,99,75,48,30.22,30.10,7,0,10,0.02
2013-5-27,87,73,57,70,64,55,96,75,52,30.15,30.01,13,2,20,0.00
2013-5-28,90,76,63,74,68,62,97,77,52,30.11,29.99,12,2,20,0.00
2013-5-29,93,78,63,93,72,61,100,81,55,30.14,30.01,12,1,18,0.00
2013-5-30,96,79,64,78,70,62,96,77,48,30.16,30.01,8,0,12,0.00
2013-5-31,92,74,64,75,68,63,97,83,48,30.10,29.99,12,2,20,0.00
2013-8-19,77,75,73,73,72,71,93,90,87,29.93,29.91,1,0,4,0.12
2013-8-20,91,77,69,79,72,67,97,85,59,30.01,29.92,5,0,13,0.08
2013-8-21,84,76,70,76,72,68,96,89,77,30.23,29.97,6,0,9,0.03
2013-8-22,90,79,70,78,73,69,97,83,61,30.19,30.05,6,0,7,2.43
2013-8-23,88,77,72,77,72,69,100,86,62,30.11,30.04,12,0,21,0.18
2013-8-24,92,78,68,90,69,63,100,76,39,30.24,30.10,9,1,14,0.00
2013-8-25,89,76,65,86,66,61,100,72,47,30.41,30.24,6,0,9,0.00
2013-8-26,89,74,62,75,66,36,100,78,50,30.33,30.15,6,0,9,0.00
2013-8-27,88,76,66,88,72,60,100,89,64,30.17,30.05,6,0,10,0.00
2013-8-28,91,80,70,77,72,67,96,80,58,30.08,29.99,7,0,10,0.00
2013-8-29,92,81,75,79,74,72,94,80,56,30.07,29.94,8,1,12,0.00
2013-8-30,93,80,70,93,76,67,100,88,65,30.04,29.91,7,1,12,0.00
2013-8-31,92,81,75,91,75,71,100,82,56,30.00,29.85,18,2,28,0.58
2013-9-1,89,78,72,77,73,70,97,85,63,29.92,29.83,13,2,20,0.22
2013-9-2,86,78,72,78,73,69,99,86,71,29.96,29.84,10,1,15,0.00
2013-9-3,88,77,69,75,70,67,99,81,56,30.03,29.87,9,1,17,0.75
2013-9-4,88,75,63,87,67,60,100,77,52,30.13,30.02,6,0,10,0.00
2013-9-5,88,74,62,86,65,57,100,76,38,30.17,30.11,7,1,10,0.00
2013-9-6,90,76,64,86,65,60,100,72,38,30.20,30.07,8,1,13,0.00
2013-9-7,89,75,64,73,67,59,90,76,52,30.13,29.99,8,1,12,0.00
2013-9-8,90,77,67,88,70,64,100,79,53,30.03,29.95,8,0,10,0.00
2013-9-9,93,79,67,83,70,64,100,76,48,30.10,30.01,8,0,12,0.00
2013-9-10,94,80,69,90,71,65,100,75,46,30.22,30.10,8,0,12,0.00
2013-9-11,92,79,70,85,72,66,100,78,52,30.23,30.09,9,1,13,0.00
2013-9-12,89,77,70,77,71,67,93,82,60,30.10,29.90,18,1,26,0.51
2013-9-13,79,70,62,69,61,54,94,73,45,29.99,29.89,12,2,16,0.00
2013-9-14,80,65,54,72,55,49,100,71,44,30.08,29.97,8,1,12,0.00
2013-9-15,86,68,54,86,60,49,100,78,50,30.17,30.07,9,0,12,0.00
2013-9-16,83,71,61,83,66,57,100,86,58,30.17,30.09,9,1,13,0.00
2013-9-17,84,72,64,84,68,59,100,89,63,30.21,30.12,7,0,10,0.00
2013-9-18,74,69,65,67,63,61,88,83,72,30.22,30.12,6,0,8,0.01
2013-9-19,86,72,61,84,66,58,100,84,58,30.18,30.04,9,1,14,0.00
2013-9-20,86,74,64,70,66,61,100,77,51,30.07,29.88,10,1,14,0.00
2013-9-21,72,68,62,68,65,59,97,90,81,29.88,29.70,10,1,15,1.87
2013-9-22,78,65,54,61,57,50,94,76,48,29.93,29.81,8,1,12,0.00
2013-9-23,84,67,53,84,62,50,100,84,57,30.02,29.92,7,0,10,0.00
2013-9-24,84,70,57,84,63,52,100,80,54,30.04,29.88,8,0,12,0.00
2013-9-25,73,69,66,68,66,64,96,91,84,29.89,29.81,5,0,6,0.21
2013-9-26,82,70,63,68,64,60,96,82,51,30.02,29.86,6,0,9,0.00
2013-9-27,84,68,57,68,60,53,93,77,47,30.14,30.02,5,0,7,0.00
2013-9-28,82,67,48,67,60,44,100,78,54,30.22,30.08,5,0,7,0.00
2013-9-29,74,66,60,65,61,57,93,83,63,30.13,29.98,6,0,9,0.00
2013-9-30,77,66,57,66,60,54,100,82,58,30.08,29.98,7,0,10,0.00
2013-10-1,82,68,56,82,62,53,100,83,59,30.15,30.03,10,1,13,0.00
2013-10-2,82,70,59,71,64,56,93,81,63,30.17,30.05,6,0,8,0.00
2013-10-3,87,73,65,86,67,62,100,83,54,30.12,30.03,8,0,12,0.00
2013-10-4,87,73,62,71,65,58,91,78,52,30.15,30.06,6,0,10,0.00
2013-10-5,89,74,60,73,66,55,92,77,53,30.12,29.98,7,0,9,0.00
2013-10-6,88,74,63,82,65,60,100,76,48,29.99,29.78,15,2,21,0.04
2013-10-7,72,63,56,68,54,47,91,73,46,30.06,29.82,12,2,22,0.19
2013-10-8,78,62,49,77,51,44,100,71,45,30.13,30.05,10,1,14,0.00
2013-10-9,79,65,53,79,58,49,100,79,51,30.19,30.09,6,0,9,0.00
2013-10-10,78,64,51,78,54,46,100,73,46,30.14,30.02,8,0,12,0.00
2013-10-11,80,64,51,79,56,46,100,76,50,30.08,29.97,7,0,12,0.00
2013-10-12,80,66,54,80,58,50,100,77,46,30.10,29.99,8,0,12,0.00
2013-10-13,77,67,59,65,61,54,94,81,62,30.20,30.09,7,1,12,0.00
2013-10-14,84,70,59,80,62,54,100,78,49,30.22,30.07,9,1,13,0.00
2013-10-15,76,68,62,66,62,58,93,82,66,30.11,29.99,6,0,7,0.00
2013-10-16,69,65,60,63,60,57,93,86,76,30.04,29.93,11,1,15,0.01
2013-10-17,68,63,58,67,60,51,99,91,76,29.99,29.83,13,2,20,0.52
2013-10-18,68,57,48,54,50,44,94,78,50,30.06,29.93,6,0,8,0.00
2013-10-19,65,55,49,54,50,44,93,83,66,30.01,29.88,15,2,24,0.00
2013-10-20,68,51,38,49,42,33,91,72,38,30.10,30.00,7,0,9,0.00
2013-10-21,68,53,39,53,44,35,89,73,42,30.11,29.97,12,1,20,0.00
2013-10-22,64,57,51,55,51,48,91,81,68,30.00,29.83,7,1,10,0.00
2013-10-23,53,48,38,49,41,32,91,77,59,30.08,29.78,13,2,20,0.00
2013-10-24,52,44,36,41,37,30,91,76,61,30.24,30.06,15,2,22,0.00
2013-10-25,56,42,33,35,30,26,87,65,37,30.42,30.24,12,1,15,0.00
2013-10-26,57,44,28,42,33,16,100,69,47,30.31,30.07,15,4,23,0.00
2013-10-27,62,56,50,53,46,37,86,69,56,30.13,30.06,11,2,15,0.00
2013-10-28,66,59,53,60,55,50,98,87,68,30.26,30.10,12,2,17,0.00
2013-10-29,74,62,54,61,57,44,99,84,55,30.32,30.20,10,1,14,0.00
2013-10-30,79,67,59,78,61,57,100,81,58,30.25,30.09,11,2,17,0.00
2013-10-31,72,65,58,65,60,57,97,86,73,30.12,29.66,21,3,31,0.01
2013-11-1,72,66,56,67,59,50,100,81,54,29.79,29.65,23,5,50,0.40
2013-11-2,62,54,45,52,46,40,94,75,46,30.07,29.77,15,1,24,0.01
2013-11-3,62,50,40,54,43,28,100,79,38,30.29,30.06,10,1,12,0.00
2013-11-4,67,51,37,67,49,10,100,94,60,30.40,30.29,7,1,10,0.00
2013-11-5,70,55,44,70,55,44,100,100,100,30.43,30.29,6,0,8,0.00
2013-11-6,74,59,-26,74,59,-48,100,100,91,30.30,30.06,182,2,20,0.00
2013-11-7,64,53,40,64,53,40,100,100,100,30.26,30.03,15,3,23,0.40
2013-11-8,58,43,31,58,43,31,100,100,100,30.37,30.25,10,1,13,0.00
2013-11-9,55,42,30,55,42,30,100,100,100,30.33,30.18,13,2,20,0.00
2013-11-10,66,51,37,66,51,37,100,100,100,30.31,30.21,9,2,14,0.00
2013-11-11,64,47,32,64,47,31,100,100,100,30.33,29.95,10,1,14,0.00
2013-11-12,51,41,29,51,41,29,100,100,100,30.54,30.11,17,4,22,0.00
2013-11-13,47,33,20,47,33,20,100,100,100,30.63,30.45,9,1,12,0.00
2013-11-14,56,37,21,56,37,21,100,100,100,30.47,30.22,10,1,20,0.00
2013-11-15,46,39,30,46,39,30,100,100,100,30.31,30.16,7,0,10,0.09
2013-11-16,65,53,45,65,53,45,100,100,100,30.23,30.10,8,0,10,0.00
2013-11-17,65,56,48,65,56,48,100,100,100,30.11,29.83,16,1,30,0.92
2013-11-18,65,58,45,65,58,45,100,100,100,30.16,29.86,10,2,15,4.83
2013-11-19,57,46,36,57,46,36,100,100,100,30.25,30.16,9,2,13,0.00
2013-11-20,61,46,32,61,46,32,100,100,100,30.31,30.18,8,1,12,0.00
2013-11-21,62,51,39,62,51,39,100,100,100,30.37,30.26,10,1,13,0.00
2013-11-22,56,54,51,56,54,51,100,100,100,30.31,30.19,10,1,13,0.07
2013-11-23,53,45,31,53,45,31,100,100,100,30.41,30.22,16,5,21,0.00
2013-11-24,40,31,24,40,31,24,100,100,100,30.57,30.40,14,3,21,0.00
2013-11-25,37,31,24,37,31,24,100,100,100,30.47,30.19,4,0,6,0.09
2013-11-26,44,39,35,44,39,35,100,100,100,30.19,29.69,12,2,20,1.81
2013-11-27,38,32,29,38,32,29,100,100,100,30.29,29.83,12,3,18,0.05
2013-11-28,45,32,21,45,32,21,100,100,100,30.48,30.29,6,0,8,0.01
2013-11-29,51,35,22,51,35,22,100,100,100,30.60,30.48,6,1,10,0.00
2013-11-30,54,37,25,54,37,25,100,100,100,30.53,30.31,8,0,12,0.00
2013-12-1,55,40,26,55,40,26,100,100,100,30.31,30.02,10,1,14,0.00
2013-12-2,49,47,44,49,47,44,100,100,100,30.02,29.84,4,0,6,0.00
2013-12-3,56,50,46,56,50,46,100,100,100,29.92,29.86,5,0,7,0.03
2013-12-4,69,58,48,69,58,48,100,100,100,30.00,29.91,13,2,21,0.00
2013-12-5,72,66,60,72,66,60,100,100,100,30.05,29.94,15,4,25,0.03
2013-12-6,68,48,39,68,48,39,100,100,100,30.20,29.92,13,3,23,1.72
2013-12-7,39,38,36,39,38,36,100,100,100,30.45,30.20,11,4,15,0.00
2013-12-8,44,40,36,44,40,36,100,100,100,30.36,29.97,7,1,12,1.13
2013-12-9,53,46,41,53,46,41,100,100,100,30.18,30.04,10,1,13,0.65
2013-12-10,41,36,29,41,36,29,100,100,100,30.38,29.97,11,2,21,0.48
2013-12-11,48,34,21,48,34,21,100,100,100,30.46,30.34,9,1,12,0.00
2013-12-12,41,33,26,41,33,26,100,100,100,30.54,30.40,10,2,14,0.00
2013-12-13,49,34,20,49,34,20,100,100,100,30.42,30.16,7,0,12,0.00
2013-12-14,47,43,38,47,43,38,100,100,100,30.18,29.82,12,1,17,0.41
2013-12-15,45,37,31,45,37,31,100,100,100,30.22,29.86,13,2,22,0.00
2013-12-16,49,38,28,49,38,28,100,100,100,30.26,30.12,12,4,20,0.00
2013-12-17,56,45,36,56,45,36,100,100,100,30.26,30.02,17,6,26,0.00
2013-12-18,48,38,28,48,38,28,100,100,100,30.37,30.25,9,2,14,0.00
2013-12-19,54,38,24,54,38,24,100,100,100,30.34,30.18,7,1,12,0.00
2013-12-20,54,45,32,54,45,32,100,100,100,30.22,30.10,5,0,8,0.00
2013-12-21,69,57,48,69,57,48,100,100,100,30.10,29.85,14,1,25,0.04
2013-12-22,69,60,56,69,60,56,100,100,100,30.10,29.86,27,4,40,1.91
2013-12-23,56,44,34,56,44,34,100,100,100,30.37,30.06,13,5,20,0.11
2013-12-24,37,32,26,37,32,26,100,100,100,30.50,30.35,11,3,18,0.00
2013-12-25,44,31,19,44,31,19,100,100,100,30.48,30.33,8,1,12,0.00
2013-12-26,49,36,27,49,36,27,100,100,100,30.42,30.33,7,1,9,0.00
2013-12-27,52,36,24,52,36,24,100,100,100,30.51,30.39,8,0,10,0.00
2013-12-28,42,35,25,42,35,25,100,100,100,30.44,30.02,6,0,9,0.43
2013-12-29,49,44,41,49,44,41,100,100,100,30.08,29.89,10,3,15,1.08
2013-12-30,43,38,36,43,38,36,100,100,100,30.26,30.07,10,2,16,0.00
2013-12-31,46,34,26,46,34,26,100,100,100,30.48,30.25,8,0,10,0.00
2014-1-1,47,33,22,47,33,22,100,100,100,30.39,30.12,11,1,13,0.00
2014-1-2,40,33,22,40,33,22,100,100,100,30.21,29.79,16,2,24,0.40